Sidney, British Columbia

4:37 PM PDT on July 21, 2017 (GMT -0700)
Victoria International | | Change Station

Elev 62 ft 48.65 °N, 123.43 °W | Updated 37 minutes ago

Light Rain
Light Rain
64 °F
Feels Like 64 °F
N
5
Wind Variable Wind from East

Today
High -- | Low -- °F
--% Chance of Precip.
Yesterday
High -- | Low -- °F
Precip. -- in
Pressure 30.16 in
Visibility 30.0 miles
Clouds Mostly Cloudy 8200 ft
Overcast 11000 ft
Dew Point 54 °F
Humidity 68%
Rainfall 0.00 in
Snow Depth Not available.
5:34 AM 9:05 PM
Waning Crescent, 3% visible
METAR CYYJ 212300Z 10004KT 30SM -RA BKN082 OVC110 18/12 A3015 RMK AC5AC3 SLP212 DENSITY ALT 200FT
Pressure 30.16 in
Visibility 30.0 miles
Clouds Mostly Cloudy 8200 ft
Overcast 11000 ft
Dew Point 54 °F
Humidity 68%
Rainfall 0.00 in
Snow Depth Not available.
5:34 AM 9:05 PM
Waning Crescent, 3% visible
METAR CYYJ 212300Z 10004KT 30SM -RA BKN082 OVC110 18/12 A3015 RMK AC5AC3 SLP212 DENSITY ALT 200FT

Get Severe Weather Alerts

Thanks for signing up!

Be on the lookout for a verification email in your inbox.

You'll start receiving the daily forecast at 6 AM.

×

10-Day Weather Forecast

Almanac

Astronomy

Jul. 21, 2017 Rise Set
Actual Time
Civil Twilight
Nautical Twilight
Astronomical Twilight
Moon
Length of Visible Light
Length of Day
Tomorrow will be .
, % of the Moon is Illuminated

Today's Extremes

Country Highs Country Lows

Community

WunderPhotos

Category 6

Welcome to Category 6. This is the collective home for Weather Underground's featured writeups by Dr. Jeff Masters (right), Bob Henson (left), Chris Burt, and other regular contributors.

Nearby

Air Quality

  Air Quality AQ Index Pollutant
Not available.

Snow Depth

Station Depth Elevation

Earthquake Activity

City Distance Mag. Time & Date
Minimum magnitude displayed is 2.5.

Coastal Water Temperatures

Place Temperature

Stations

Nearby Weather Stations

Station Location Temp. Windchill Dew Point Humidity Wind Precip. Elev Updated Type
                   

Watches & Warnings

There are currently no watches in effect.